Wind from 270 at 17 knots

Air temperature 8.0° C
Visibility: greater than 5.4 NM
Dewpoint -2.0° C

Last reported at 2014-Apr-17 22:00 UTC.
Time now 2014-Apr-18 00:25 UTC

Location: S 51°37' W 069°19'.
View on Google Maps.

See reports from other nearby stations

Tides Stations Pressure Air Temp Water Temp Dewpoint Dewpoint depression Visibility Wind Speed Wind Dir Waves Ship positions

  
sailing weather and tide predictions

Piloto Civil Norberto Fernandez weather

date/time (UTC)wind fromknots sea level pressurealtimeterstation pressurevisibilityair tempwater tempwave heightnotes
2014-Apr-17 23:00 250 13 6.0
2014-Apr-17 22:00 270 17 5.4 8.0
2014-Apr-17 21:00 270 15 5.410.0
2014-Apr-17 20:00 270 23 5.412.0
2014-Apr-17 19:00 270 19 5.414.0
2014-Apr-17 18:00 320 20 5.413.0
2014-Apr-17 15:00 340 20 8.0
2014-Apr-17 14:00 340 17 6.0
2014-Apr-17 13:00 340 15 5.0
2014-Apr-17 12:00 360 16 3.0
2014-Apr-17 11:00 340 16 3.0
2014-Apr-17 10:00 340 14 3.0
2014-Apr-17 09:00 320 15 2.0
2014-Apr-17 08:00 320 13 2.0
2014-Apr-17 07:00 320 13 2.0
2014-Apr-17 06:00 320 10 1.0
2014-Apr-17 05:00 250 9 1.0
2014-Apr-17 04:00 270 12 2.0
2014-Apr-17 03:00 270 15 3.0
2014-Apr-17 02:00 270 20 4.0
2014-Apr-17 01:00 270 20 4.0
2014-Apr-17 00:00 290 17 3.0
2014-Apr-16 23:00 290 12 5.4 4.0
2014-Apr-16 22:00 270 13 5.4 5.0
2014-Apr-16 21:00 250 19 5.4 6.0
2014-Apr-16 20:00 250 20 5.4 8.0
2014-Apr-16 19:00 250 19 5.4 9.0
2014-Apr-16 18:00 250 20 5.4 9.0
2014-Apr-16 17:00 270 23 5.4 8.0
2014-Apr-16 16:00 270 25 gusting 32 5.4 8.0
2014-Apr-16 15:00 270 23 5.4 6.0
2014-Apr-16 14:00 270 25 gusting 35 5.0
2014-Apr-16 13:00 270 29 gusting 40 5.0
2014-Apr-16 12:00 270 29 gusting 39 4.0
2014-Apr-16 11:00 270 27 gusting 37 5.4 5.0
2014-Apr-16 10:00 270 24 gusting 34 6.0
2014-Apr-16 09:00 270 27 gusting 36 5.0
2014-Apr-16 08:00 290 24 gusting 32 5.0
2014-Apr-16 07:00 320 24 gusting 31 5.0
2014-Apr-16 06:00 320 26 gusting 34 6.0
2014-Apr-16 05:00 320 19 5.0
2014-Apr-16 04:00 320 12 4.0
2014-Apr-16 03:00 320 12 5.0
2014-Apr-16 02:00 320 9 5.0
2014-Apr-16 01:00 320 7 6.0
2014-Apr-16 00:00 290 10 6.0